Location: Klein M�hlingen
(51.9472°N, 11.7453°E)
Time: 10:01:17
(UTC+00:00)

Cosmos 1743 Rocket - Pass Details

Date: 09 April 2020
Orbit: 603 x 634 km, 82.6° (Epoch: 06 June)

Event Time Altitude Azimuth Distance (km) Brightness Sun altitude
Rises 21:27:35 0° 349° (NNW) 2,941 8.2 -25.8°
Reaches altitude 10° 21:29:50 10° 349° (N) 2,030 7.1 -26.0°
Enters shadow 21:33:47 69° 347° (NNW) 685 3.8 -26.3°
